Regional Weather Roundup
Issued by NWS

Home | Current Version | Previous Version | Graphics & Text | Print | Product List | Glossary On
Versions: 1 2 3 4 5 6 7 8 9 10 11 12 13 14 15 16 17 18 19 20 21 22 23 24 25 26 27
000
ASUS45 KBOI 211910
RWRID

IDAHO REGIONAL WEATHER ROUNDUP
NATIONAL WEATHER SERVICE BOISE ID
100 PM MDT SAT OCT 21 2017

NOTE: "FAIR" INDICATES FEW OR NO CLOUDS BELOW 12000 FEET
WITH NO SIGNIFICANT WEATHER AND/OR OBSTRUCTIONS TO VISIBILITY

IDZ012-014-212000-
SOUTHWEST IDAHO


CITY           SKY/WX    TMP DP  RH WIND       PRES   REMARKS
BOISE          CLOUDY    48  29  47 SE12G21   30.17S
CALDWELL       CLOUDY    49  32  52 SE9       30.17S
MOUNTAIN HOME  CLOUDY    50  30  45 E7        30.16F
$$

IDZ016-017-212000-
SOUTHCENTRAL IDAHO


CITY           SKY/WX    TMP DP  RH WIND       PRES   REMARKS
BURLEY         PTSUNNY   46  25  43 W7        30.18F
JEROME         MOSUNNY   45  29  53 SW5       30.19F
TWIN FALLS     PTSUNNY   49  25  39 SW14      30.17F
$$

IDZ019>023-212000-
SOUTHEAST IDAHO


CITY           SKY/WX    TMP DP  RH WIND       PRES   REMARKS
IDAHO FALLS    MOSUNNY   42  26  53 SW22G29   30.17R
POCATELLO      MOSUNNY   45  24  43 W20       30.20S
REXBURG        MOSUNNY   39  28  64 SW16G25   30.15S WCI  30
$$

IDZ006-010-011-018-031-032-212000-
CENTRAL IDAHO MOUNTAINS


CITY           SKY/WX    TMP DP  RH WIND       PRES   REMARKS
MCCALL         LGT SNOW  32  30  92 SE8       30.09S VSB 1   WCI  25
HAILEY         MOSUNNY   39  23  52 SE8       30.15F WCI  34
STANLEY          N/A     32  24  72 CALM      30.11R
SALMON         CLOUDY    46  22  38 S14G22    30.07S
CHALLIS        PTSUNNY   43  17  35 S13       30.07F
$$

IDZ002-004-006-007-026-212000-
NORTHERN IDAHO


CITY           SKY/WX    TMP DP  RH WIND       PRES   REMARKS
LEWISTON       CLOUDY    51  34  52 S5        30.00F
LOWELL           N/A     46  40  79 CALM      30.07S
COEUR D`ALENE  CLOUDY    45  34  65 SW8       29.99S
MULLAN PASS    CLOUDY    28  25  88 MISG      29.93F
$$




USA.gov is the U.S. government's official web portal to all federal, state and local government web resources and services.